WS Maaseik 1 Meer informatie WS Maaseik 1


WS Maaseik 2 Meer informatie WS Maaseik 2


Regen radar Meer informatie rain snow radar


Bezoek onze andere website:

Vorige versie
weerstation Maaseik


Bezoek ook eens deze sites:

Weerstation Geleen



Het weer levert geen direct gevaar op.    Er zijn geen waarschuwingen afgegeven.

15 daagse weersverwachting Haderslev (DK)

  • Overzicht
  • Per uur
  • 15 dagen
  • Extra
  • Vergelijk
  • Kaarten
  • Dagkaart
  • Meer »
  • Info
  • Statistieken
  • Directe link
    Temp 6h Neerslag Wind  
 05:40     21:17    Daglengte: 15:37 Vandaag
14:00
20°
 
4
20:00
19°
 
4
 05:42     21:15    Daglengte: 15:33 Morgen
02:00
15°
 
4
08:00
17°
 
5
14:00
20°
2.0 mm
7
20:00
19°
1.5 mm
6
 05:44     21:13    Daglengte: 15:29 Zaterdag 07 Aug
02:00
16°
16.2 mm
5
08:00
16°
9.4 mm
4
14:00
19°
15.2 mm
5
20:00
18°
17.1 mm
2
 05:46     21:11    Daglengte: 15:25 Zondag 08 Aug
02:00
16°
23.8 mm
3
warningclass
08:00
17°
30.8 mm
4
Locatie info
Region: Syddanmark
Latitude: 55.2506°N
Longitude: 9.4881°E
14 masl
Postcode: 6100
Temp/Neerslag /Baro Onweer/Dauwpunt
    Temp Baro 1h Neerslag Dauwpunt Wind UV Bewolking  
 05:40     21:17    Daglengte: 15:37 Vandaag
13:00
19°
1012.0 hPa
18%
12.0°
4
Windvlaag: 0.1 m/s
18%
14:00
20°
1011.6 hPa
27%
11.3°
4
Windvlaag: 0.3 m/s
29%
15:00
20°
1011.1 hPa
13%
11.9°
4
Windvlaag: 1.4 m/s
23%
16:00
20°
1010.6 hPa
13%
11.7°
4
Windvlaag: 1.9 m/s
46%
17:00
20°
1010.1 hPa
13%
11.3°
4
Windvlaag: 2.6 m/s
14%
18:00
20°
1009.5 hPa   11.7°
4
Windvlaag: 3.5 m/s
12%
19:00
20°
1009.2 hPa   12.4°
4
Windvlaag: 2.2 m/s
7%
20:00
19°
1008.9 hPa   12.9°
4
Windvlaag: 2.3 m/s
5%
21:00
18°
1008.9 hPa   11.9°
4
Windvlaag: 3 m/s
4%
22:00
17°
1009.1 hPa   11.2°
4
Windvlaag: 3.2 m/s
7%
23:00
16°
1008.9 hPa   12.0°
4
Windvlaag: 3.4 m/s
27%
 05:42     21:15    Daglengte: 15:33 Morgen
00:00
16°
1008.7 hPa   12.9°
4
Windvlaag: 4.6 m/s
8%
01:00
15°
1008.1 hPa   13.8°
4
Windvlaag: 5.2 m/s
8%
02:00
15°
1007.7 hPa   14.2°
4
Windvlaag: 4.8 m/s
9%
03:00
15°
1007.3 hPa   14.2°
4
Windvlaag: 4.6 m/s
17%
04:00
15°
1006.9 hPa   13.9°
4
Windvlaag: 4.6 m/s
13%
05:00
15°
1006.4 hPa   13.5°
4
Windvlaag: 4.2 m/s
41%
06:00
15°
1006.3 hPa   14.0°
5
Windvlaag: 3.7 m/s
33%
07:00
16°
1006.1 hPa   14.6°
5
Windvlaag: 2.8 m/s
18%
08:00
17°
1005.9 hPa   15.1°
5
Windvlaag: 4 m/s
50%
09:00
18°
1005.7 hPa
16%
15.2°
6
Windvlaag: 4.4 m/s
58%
10:00
19°
1005.3 hPa
29%
15.0°
6
Windvlaag: 4.7 m/s
21%
11:00
19°
1005.0 hPa 0.6 mm
30%
16.0°
6
Windvlaag: 5.9 m/s
62%
12:00
19°
1004.7 hPa 0.7 mm
31%
16.3°
6
Windvlaag: 6.6 m/s
12%
13:00
20°
1004.5 hPa 0.5 mm
32%
16.3°
7
Windvlaag: 7.1 m/s
10%
14:00
20°
1004.3 hPa 0.2 mm
33%
16.4°
7
Windvlaag: 6.9 m/s
27%
15:00
20°
1004.0 hPa 0.4 mm
35%
15.9°
7
Windvlaag: 8.1 m/s
25%
16:00
21°
1003.8 hPa 0.2 mm
35%
14.5°
7
Windvlaag: 8.1 m/s
33%
17:00
21°
1003.4 hPa 0.2 mm
35%
12.3°
7
Windvlaag: 8.6 m/s
40%
18:00
20°
1003.1 hPa
35%
11.2°
7
Windvlaag: 8.2 m/s
56%
19:00
20°
1003.2 hPa
40%
13.2°
7
Windvlaag: 7.8 m/s
69%
20:00
19°
1003.1 hPa 0.7 mm
45%
12.0°
6
Windvlaag: 6.6 m/s
86%
21:00
18°
1003.5 hPa 2.3 mm
82%
12.5°
6
Windvlaag: 5.5 m/s
86% warningclass
22:00
17°
1003.6 hPa 3.1 mm
82%
11.5°
6
Windvlaag: 7.7 m/s
86% warningclass
23:00
17°
1003.7 hPa 2.4 mm
82%
12.6°
6
Windvlaag: 9.4 m/s
86% warningclass
 05:44     21:13    Daglengte: 15:29 Zaterdag 07 Aug
00:00
17°
1003.6 hPa 3.1 mm
82%
13.5°
6
Windvlaag: 10 m/s
86% warningclass
01:00
16°
1003.4 hPa 2.7 mm
82%
13.6°
5
Windvlaag: 6.9 m/s
77% warningclass
02:00
16°
1003.4 hPa 2.7 mm
82%
13.6°
5
Windvlaag: 7.7 m/s
31%
03:00
16°
1003.2 hPa 2.2 mm
82%
13.8°
4
Windvlaag: 6.9 m/s
61%
04:00
16°
1003.1 hPa
80%
14.4°
4
Windvlaag: 6.8 m/s
69%
05:00
16°
1003.0 hPa 3.6 mm
99%
15.4°
4
Windvlaag: 6.6 m/s
92%
06:00
15°
1003.0 hPa
38%
15.0°
3
Windvlaag: 6.4 m/s
98%
07:00
16°
1003.1 hPa 3.6 mm
32%
14.9°
3
Windvlaag: 6.4 m/s
91%
08:00
16°
1003.3 hPa
32%
14.8°
4
Windvlaag: 6.7 m/s
78%
09:00
17°
1003.5 hPa
83%
14.4°
4
Windvlaag: 6.4 m/s
46%
10:00
18°
1003.6 hPa 2.4 mm
100%
15.1°
4
Windvlaag: 7.2 m/s
39% warningclass
11:00
18°
1003.6 hPa 2.6 mm
100%
15.6°
4
Windvlaag: 7.2 m/s
58% warningclass
12:00
18°
1003.4 hPa 2.7 mm
100%
15.9°
4
Windvlaag: 7.4 m/s
63% warningclass
13:00
19°
1003.5 hPa 3.0 mm
100%
15.3°
5
Windvlaag: 7.7 m/s
58%
14:00
19°
1003.4 hPa 4.5 mm
100%
14.5°
5
Windvlaag: 7.6 m/s
54%
15:00
20°
1003.2 hPa 4.5 mm
100%
13.9°
4
Windvlaag: 7.2 m/s
63%
16:00
20°
1003.1 hPa
99%
14.8°
4
Windvlaag: 6 m/s
56%
17:00
20°
1003.0 hPa 3.3 mm
100%
13.7°
3
Windvlaag: 5.8 m/s
77%
18:00
19°
1002.9 hPa 3.3 mm
100%
12.5°
3
Windvlaag: 5.6 m/s
66%
19:00
19°
1002.8 hPa 3.0 mm
96%
13.2°
2
Windvlaag: 4.8 m/s
79%
20:00
18°
1002.9 hPa 3.0 mm
97%
12.6°
2
Windvlaag: 3.4 m/s
81%
21:00
17°
1002.7 hPa 3.1 mm
88%
13.2°
2
Windvlaag: 3.1 m/s
75%
22:00
16°
1002.4 hPa 5.5 mm
37%
13.2°
3
Windvlaag: 2.8 m/s
73%
23:00
16°
1002.0 hPa 3.6 mm
83%
13.5°
3
Windvlaag: 2.8 m/s
85%
 05:46     21:11    Daglengte: 15:25 Zondag 08 Aug
00:00
16°
1002.0 hPa 3.5 mm
100%
14.0°
3
Windvlaag: 7 m/s
88%
01:00
16°
1001.7 hPa 4.4 mm
100%
14.1°
4
Windvlaag: 6.4 m/s
48%
02:00
16°
1001.3 hPa 3.7 mm
100%
14.3°
3
Windvlaag: 5.8 m/s
46% warningclass
03:00
16°
1000.7 hPa 6.3 mm
100%
14.4°
4
Windvlaag: 2.1 m/s
86% warningclass
04:00
16°
1000.5 hPa 5.5 mm
100%
14.4°
3
Windvlaag: 2.7 m/s
91% warningclass
05:00
15°
1000.3 hPa 5.0 mm
99%
14.3°
3
Windvlaag: 2.9 m/s
86%
06:00
15°
1000.0 hPa
81%
14.2°
2
Windvlaag: 3 m/s
87%
07:00
16°
1000.0 hPa
35%
15.1°
3
Windvlaag: 4.7 m/s
60%
08:00
17°
1000.1 hPa
79%
14.5°
4
Windvlaag: 6.6 m/s
27%
09:00
17°
1000.4 hPa 0.2 mm
100%
-35.4°
4
Windvlaag: 0 m/s
44%
Temp/Neerslag /Baro Onweer/Dauwpunt
    Temp Baro Neerslag Dauwpunt Wind Bewolking  
 05:40     21:17    Daglengte: 15:37 Vandaag
14:00
20°
1011.6 hPa   11.3°
4
29%
17:00
20°
1010.1 hPa   11.3°
4
14%
20:00
19°
1008.9 hPa   12.9°
4
5%
23:00
16°
1008.9 hPa   12.0°
4
27%
 05:42     21:15    Daglengte: 15:33 Morgen
02:00
15°
1007.7 hPa   14.2°
4
9%
05:00
15°
1006.4 hPa   13.5°
4
41%
08:00
17°
1005.9 hPa   15.1°
5
50%
11:00
19°
1005.0 hPa 0.6 mm 16.0°
6
62%
14:00
20°
1004.3 hPa 1.4 mm 16.4°
7
27%
17:00
21°
1003.4 hPa 0.9 mm 12.3°
7
40%
20:00
19°
1003.1 hPa 0.7 mm 12.0°
6
86%
23:00
17°
1003.7 hPa 7.7 mm 12.6°
6
86% warningclass
 05:44     21:13    Daglengte: 15:29 Zaterdag 07 Aug
02:00
16°
1003.4 hPa 8.5 mm 13.6°
5
31%
05:00
16°
1003.0 hPa 5.8 mm 15.4°
4
92%
08:00
16°
1003.3 hPa 3.6 mm 14.8°
4
78%
11:00
18°
1003.6 hPa 5.0 mm 15.6°
4
58% warningclass
14:00
19°
1003.4 hPa 10.2 mm 14.5°
5
54%
17:00
20°
1003.0 hPa 7.8 mm 13.7°
3
77%
20:00
18°
1002.9 hPa 9.3 mm 12.6°
2
81%
23:00
16°
1002.0 hPa 12.2 mm 13.5°
3
85%
 05:46     21:11    Daglengte: 15:25 Zondag 08 Aug
02:00
16°
1001.3 hPa 11.6 mm 14.3°
3
46% warningclass
05:00
15°
1000.3 hPa 16.9 mm 14.3°
3
86%
08:00
17°
1000.1 hPa   14.5°
4
27%
11:00
18°
1001.0 hPa 7.4 mm 13.2°
6
4% warningclass
14:00
19°
1002.2 hPa 7.3 mm 14.1°
5
0%
17:00
18°
1005.2 hPa 36.6 mm 13.9°
8
1%
20:00
17°
1006.2 hPa 37.4 mm 14.6°
7
1%
23:00
15°
1007.7 hPa 37.7 mm 13.7°
6
0%
 05:47     21:09    Daglengte: 15:22 Maandag 09 Aug
02:00
16°
1008.2 hPa 37.9 mm 13.5°
6
0%
05:00
15°
1008.5 hPa 38.1 mm 13.1°
6
1%
08:00
16°
1009.7 hPa 38.6 mm 13.3°
6
1%
11:00
18°
1011.2 hPa 39.6 mm 13.3°
9
1%
14:00
19°
1012.1 hPa 40.2 mm 12.8°
9
1%
17:00
18°
1012.9 hPa 42.0 mm 14.8°
8
1%
20:00
16°
1013.9 hPa 42.7 mm 14.0°
7
1%
23:00
14°
1015.2 hPa 42.7 mm 13.2°
5
1%
 05:49     21:06    Daglengte: 15:17 Dinsdag 10 Aug
02:00
13°
1015.8 hPa 42.8 mm 12.5°
4
1%
05:00
13°
1015.9 hPa 42.8 mm 12.2°
4
1%
08:00
16°
1016.4 hPa 42.8 mm 13.5°
4
1%
11:00
19°
1017.0 hPa 42.8 mm 12.8°
5
1%
14:00
21°
1016.8 hPa 42.8 mm 12.8°
5
1%
17:00
17°
1017.1 hPa 43.2 mm 15.4°
5
1%
20:00
17°
1017.2 hPa 43.5 mm 15.6°
5
1%
23:00
16°
1017.8 hPa 43.5 mm 15.1°
3
1%
 05:51     21:04    Daglengte: 15:13 Woensdag 11 Aug
02:00
16°
1017.9 hPa 43.5 mm 15.2°
4
1%
05:00
15°
1017.5 hPa 43.5 mm 14.5°
3
1%
08:00
17°
1017.5 hPa 43.5 mm 15.2°
4
1%
11:00
20°
1017.4 hPa 43.5 mm 15.3°
6
1%
14:00
22°
1017.2 hPa 43.7 mm 15.5°
7
1%
17:00
21°
1017.3 hPa 44.8 mm 15.9°
7
1%
20:00
19°
1017.6 hPa 45.2 mm 16.1°
5
1%
23:00
16°
1019.1 hPa 45.2 mm 15.1°
4
0%
 05:53     21:02    Daglengte: 15:09 Donderdag 12 Aug
02:00
14°
1020.1 hPa 45.2 mm 13.4°
3
0%
05:00
13°
1020.4 hPa 45.2 mm 11.7°
4
0%
08:00
15°
1021.5 hPa 45.2 mm 13.4°
4
0%
11:00
19°
1022.5 hPa   10.4°
5
1%
14:00
20°
1022.9 hPa 90.3 mm 10.1°
7
0%
20:00
17°
1024.0 hPa 90.3 mm 11.9°
4
1%
 05:55     21:00    Daglengte: 15:05 Vrijdag 13 Aug
02:00
12°
1025.2 hPa 90.3 mm 10.4°
3
0%
08:00
14°
1025.2 hPa 90.3 mm 11.7°
3
1%
14:00
22°
1023.8 hPa 90.3 mm 11.7°
3
0%
20:00
21°
1021.5 hPa 90.3 mm 13.8°
2
0%
 05:57     20:57    Daglengte: 15:00 Zaterdag 14 Aug
02:00
16°
1021.1 hPa 90.3 mm 13.4°
3
0%
08:00
17°
1019.1 hPa 90.3 mm 13.8°
3
0%
14:00
23°
1016.4 hPa 90.5 mm 14.2°
4
0%
20:00
20°
1014.1 hPa 90.7 mm 14.9°
3
0%
 05:59     20:55    Daglengte: 14:56 Zondag 15 Aug
02:00
16°
1011.8 hPa 90.7 mm 11.6°
5
1%
08:00
15°
1009.9 hPa 0.5 mm 12.3°
3
60%
14:00
19°
1010.1 hPa 1.1 mm 12.4°
4
72%
20:00
17°
1010.1 hPa 1.2 mm 12.6°
3
65%
 06:00     20:53    Daglengte: 14:53 Maandag 16 Aug
02:00
14°
1010.7 hPa 0.5 mm 11.8°
1
59%
08:00
15°
1010.2 hPa 0.5 mm 12.5°
2
58%
14:00
20°
1010.8 hPa 1.2 mm 12.9°
3
55%
20:00
17°
1011.0 hPa 0.9 mm 13.2°
3
58%
 06:02     20:51    Daglengte: 14:49 Dinsdag 17 Aug
02:00
14°
1011.7 hPa 0.7 mm 12.6°
3
59%
08:00
15°
1012.0 hPa 0.4 mm 12.9°
3
65%
14:00
19°
1012.7 hPa 0.9 mm 13.5°
5
73%
20:00
17°
1012.4 hPa 0.9 mm 13.4°
3
67%
 06:04     20:48    Daglengte: 14:44 Woensdag 18 Aug
02:00
15°
1012.6 hPa   12.9°
2
66%
08:00
16°
1012.1 hPa 0.6 mm 13.6°
2
68%
14:00
20°
1012.0 hPa 1.5 mm 14.4°
3
61%
20:00
18°
1011.7 hPa 0.9 mm 14.2°
3
57%
 06:06     20:46    Daglengte: 14:40 Donderdag 19 Aug
02:00
15°
1012.1 hPa 0.7 mm 13.0°
2
51%
08:00
16°
1012.2 hPa 0.6 mm 13.4°
2
60%
14:00
21°
1012.7 hPa 0.8 mm 13.7°
3
59%
20:00
18°
1012.4 hPa 0.8 mm 13.7°
2
58%
 06:08     20:43    Daglengte: 14:35 Vrijdag 20 Aug
02:00
15°
1012.6 hPa 0.3 mm 12.7°
1
48%
08:00
16°
1012.1 hPa 0.5 mm 13.0°
2
55%
  CAPE Lifted Index Hail Supercell Tornado SRH 3km CL BTM PRES CL TOP PRES Swiss DWD icon SMHI TS
 05:40     21:17    Daglengte: 15:37 Vandaag
13:00 72 J/kg 1.6 K 0 % 0 % 0 % 0 m²/s² 0 0 1.99 2
14:00 75 J/kg 1.5 K 0 % 0 % 0 % 0 m²/s² 0 0 1.95 2
15:00 60 J/kg 1.5 K 0 % 0 % 0 % 0 m²/s² 0 0 2.28 2
16:00 66 J/kg 1.3 K 0 % 0 % 0 % 0 m²/s² 0 0 2.11 3
17:00 51 J/kg 1.3 K 0 % 0 % 0 % 0 m²/s² 0 0 2.17 2
18:00 30 J/kg 1.3 K 0 % 0 % 0 % 0 m²/s² 0 0 2.23 1
19:00 5 J/kg 1.7 K 0 % 0 % 0 % 0 m²/s² 0 0 2.66 1
20:00 6 J/kg 2.0 K 0 % 0 % 0 % 0 m²/s² 0 0 3.17 1
21:00 5 J/kg 1.9 K 0 % 0 % 0 % 0 m²/s² 0 0 3.07 1
22:00 5 J/kg 2.1 K 0 % 0 % 0 % 0 m²/s² 0 0 3.21 1
23:00 1 J/kg 2.0 K 0 % 0 % 0 % 0 m²/s² 0 0 3.17 1
 05:42     21:15    Daglengte: 15:33 Morgen
00:00 0 J/kg 1.0 K 0 % 0 % 0 % 0 m²/s² 0 0 2.17 1
01:00 24 J/kg 0.6 K 0 % 0 % 0 % 0 m²/s² 0 0 1.77 1
02:00 41 J/kg 0.4 K 0 % 0 % 0 % 0 m²/s² 0 0 1.66 2
03:00 54 J/kg 0.1 K 0 % 0 % 0 % 0 m²/s² 0 0 1.48 3
04:00 57 J/kg 0.0 K 0 % 0 % 0 % 0 m²/s² 0 0 1.62 2
05:00 69 J/kg -0.2 K 0 % 0 % 0 % 0 m²/s² 0 0 1.36 3
06:00 83 J/kg -0.4 K 0 % 0 % 0 % 0 m²/s² 0 0 1.04 3
07:00 98 J/kg -0.5 K 0 % 0 % 0 % 0 m²/s² 0 0 1.06 2
08:00 317 J/kg -1.3 K 0 % 0 % 0 % 0 m²/s² 0 0 0.08 3
09:00 458 J/kg -1.9 K 0 % 0 % 0 % 0 m²/s² 0 0 -0.46 2
10:00 488 J/kg -2.0 K 0 % 0 % 0 % 0 m²/s² 0 0 -0.5 3
11:00 457 J/kg -1.9 K 0 % 0 % 0 % 0 m²/s² 0 0 -0.16 3
12:00 363 J/kg -1.5 K 0 % 0 % 0 % 0 m²/s² 0 0 0.18 2
13:00 183 J/kg -0.7 K 0 % 0 % 0 % 0 m²/s² 0 0 1.1 80
14:00 139 J/kg -0.4 K 0 % 0 % 0 % 0 m²/s² 0 0 1.34 80
15:00 25 J/kg 0.7 K 0 % 0 % 0 % 0 m²/s² 0 0 2.26 80
16:00 6 J/kg 1.2 K 0 % 0 % 0 % 0 m²/s² 0 0 2.7 3
17:00 21 J/kg 0.5 K 0 % 0 % 0 % 0 m²/s² 0 0 1.94 3
18:00 243 J/kg -0.6 K 0 % 0 % 0 % 0 m²/s² 0 0 0.48 3
19:00 166 J/kg -0.7 K 0 % 0 % 0 % 0 m²/s² 0 0 -0.13 3
20:00 4 J/kg -0.3 K 0 % 0 % 0 % 0 m²/s² 0 0 -0.06 80
21:00 51 J/kg 1.0 K 0 % 0 % 0 % 0 m²/s² 0 0 1.09 95
22:00 122 J/kg 0.5 K 0 % 0 % 0 % 0 m²/s² 0 0 0.59 95
23:00 17 J/kg 1.1 K 0 % 0 % 0 % 0 m²/s² 0 0 1.1 95
 05:44     21:13    Daglengte: 15:29 Zaterdag 07 Aug
00:00 29 J/kg 0.9 K 0 % 0 % 0 % 0 m²/s² 0 0 0.93 95
01:00 57 J/kg -0.3 K 0 % 0 % 0 % 0 m²/s² 0 0 0.09 95
02:00 113 J/kg -1.3 K 0 % 0 % 0 % 0 m²/s² 0 0 -0.43 80
03:00 589 J/kg -2.5 K 0 % 0 % 0 % 0 m²/s² 0 0 -1.12 80
04:00 621 J/kg -2.8 K 0 % 0 % 0 % 0 m²/s² 0 0 -1.36 80
05:00 766 J/kg -3.2 K 0 % 0 % 0 % 0 m²/s² 0 0 -0.62 3
06:00 592 J/kg -2.7 K 0 % 0 % 0 % 0 m²/s² 0 0 0.18 3
07:00 358 J/kg -2.7 K 0 % 0 % 0 % 0 m²/s² 0 0 0.42 3
08:00 539 J/kg -2.7 K 0 % 0 % 0 % 0 m²/s² 0 0 0.69 3
09:00 807 J/kg -3.4 K 0 % 0 % 0 % 0 m²/s² 0 0 -0.97 3
10:00 838 J/kg -3.4 K 0 % 0 % 0 % 0 m²/s² 0 0 -2.02 80
11:00 845 J/kg -3.3 K 0 % 0 % 0 % 0 m²/s² 0 0 -2.19 80
12:00 944 J/kg -3.4 K 0 % 0 % 0 % 0 m²/s² 0 0 -2.2 80
13:00 947 J/kg -3.6 K 0 % 0 % 0 % 0 m²/s² 0 0 -1.77 80
14:00 828 J/kg -3.2 K 0 % 0 % 0 % 0 m²/s² 0 0 -0.65 2
15:00 793 J/kg -2.9 K 0 % 0 % 0 % 0 m²/s² 0 0 0.04 2
16:00 862 J/kg -3.5 K 0 % 0 % 0 % 0 m²/s² 0 0 -1.22 2
17:00 788 J/kg -3.4 K 0 % 0 % 0 % 0 m²/s² 0 0 -1.27 2
18:00 747 J/kg -3.2 K 0 % 0 % 0 % 0 m²/s² 0 0 -1.43 80
19:00 711 J/kg -3.3 K 0 % 0 % 0 % 0 m²/s² 0 0 -1.77 80
20:00 468 J/kg -2.5 K 0 % 0 % 0 % 0 m²/s² 0 0 -1.63 80
21:00 224 J/kg -1.2 K 0 % 0 % 0 % 0 m²/s² 0 0 0.39 3
22:00 132 J/kg -0.9 K 0 % 0 % 0 % 0 m²/s² 0 0 0.81 3
23:00 114 J/kg -0.7 K 0 % 0 % 0 % 0 m²/s² 0 0 0.89 3
 05:46     21:11    Daglengte: 15:25 Zondag 08 Aug
00:00 129 J/kg -0.7 K 0 % 0 % 0 % 0 m²/s² 0 0 0.83 80
01:00 81 J/kg -0.2 K 0 % 0 % 0 % 0 m²/s² 0 0 1.75 81
02:00 96 J/kg 0.3 K 0 % 0 % 0 % 0 m²/s² 0 0 2.79 95
03:00 133 J/kg 0.2 K 0 % 0 % 0 % 0 m²/s² 0 0 3.17 95
04:00 102 J/kg 0.1 K 0 % 0 % 0 % 0 m²/s² 0 0 3.4 95
05:00 176 J/kg -0.2 K 0 % 0 % 0 % 0 m²/s² 0 0 2.92 80
06:00 294 J/kg -0.7 K 0 % 0 % 0 % 0 m²/s² 0 0 2.33 3
07:00 335 J/kg -0.8 K 0 % 0 % 0 % 0 m²/s² 0 0 2.41 3
08:00 690 J/kg -2.1 K 0 % 0 % 0 % 0 m²/s² 0 0 0.69 2
09:00 0 J/kg 0.0 K 0 % 0 % 0 % 0 m²/s² 0 0 13.83 3
Temp Baro Wind Neerslag
  EWN Forecast EWN WRFDA DWD ICON FMI HIRLAM MET Norway GFS
 05:40     21:17    Daglengte: 15:37 Vandaag
14:00 19.7° 1011.6 hPa 4.2 m/s 0.0 mm 21.4° 1010.6 hPa 4.7 m/s 0.0 mm 19.7° 1011.6 hPa 4.2 m/s -1.8 mm 20.1° 1011.6 hPa 4.6 m/s 0.0 mm 19.5° 1011.5 hPa 4.9 m/s
17:00 20.3° 1010.1 hPa 4.2 m/s 0.0 mm 21.8° 1008.8 hPa 4.4 m/s 0.0 mm 20.1° 1010.4 hPa 4.3 m/s 0.0 mm 20.9° 1009.8 hPa 4.5 m/s 0.0 mm 20.8° 1010.2 hPa 5.4 m/s
20:00 19.1° 1008.9 hPa 4.1 m/s 0.0 mm 20.3° 1008.0 hPa 4.4 m/s 0.0 mm 19.4° 1009.1 hPa 3.4 m/s 0.0 mm 19.0° 1008.7 hPa 4.1 m/s 0.0 mm 18.9° 1009.0 hPa 5.7 m/s
23:00 16.2° 1008.9 hPa 4.0 m/s 0.0 mm 16.7° 1007.8 hPa 5.7 m/s 0.0 mm 16.2° 1009.1 hPa 3.7 m/s 0.0 mm 15.9° 1008.8 hPa 3.6 m/s 0.0 mm 16.5° 1008.8 hPa 6.5 m/s
 05:42     21:15    Daglengte: 15:33 Morgen
02:00 15.2° 1007.7 hPa 4.1 m/s 0.0 mm 15.5° 1006.7 hPa 5.4 m/s 0.0 mm 15.1° 1008.0 hPa 3.7 m/s 0.0 mm 14.6° 1007.4 hPa 3.6 m/s 0.0 mm 16.2° 1007.7 hPa 6.3 m/s
05:00 14.9° 1006.4 hPa 4.5 m/s 0.0 mm 15.0° 1005.4 hPa 4.9 m/s 0.0 mm 14.8° 1006.6 hPa 4.0 m/s 0.0 mm 14.7° 1006.4 hPa 4.4 m/s 0.0 mm 16.0° 1006.4 hPa 6.3 m/s
08:00 16.6° 1005.9 hPa 5.5 m/s 0.0 mm 17.4° 1004.9 hPa 7.1 m/s 0.0 mm 16.7° 1006.2 hPa 5.7 m/s 0.0 mm 15.6° 1005.8 hPa 5.1 m/s 0.0 mm 18.0° 1005.3 hPa 7.1 m/s
11:00 19.1° 1005.0 hPa 6.1 m/s 0.6 mm 20.6° 1003.8 hPa 7.5 m/s 0.0 mm 18.9° 1005.6 hPa 6.0 m/s 0.4 mm 18.7° 1005.1 hPa 5.2 m/s 0.0 mm 20.1° 1004.9 hPa 8.5 m/s
14:00 19.8° 1004.3 hPa 7.0 m/s 1.4 mm 22.7° 1003.3 hPa 8.0 m/s 0.0 mm 20.5° 1004.6 hPa 7.0 m/s 0.7 mm 19.3° 1004.4 hPa 5.6 m/s 0.0 mm 21.2° 1004.2 hPa 9.6 m/s
17:00 20.7° 1003.4 hPa 7.1 m/s 0.9 mm 23.2° 1001.3 hPa 8.2 m/s 0.0 mm 20.5° 1004.1 hPa 7.1 m/s 0.6 mm 21.4° 1003.6 hPa 6.3 m/s 0.0 mm 18.4° 1003.1 hPa 6.9 m/s
20:00 18.6° 1003.1 hPa 6.0 m/s 0.7 mm 20.4° 1001.4 hPa 7.9 m/s 0.0 mm 18.2° 1003.9 hPa 5.6 m/s 0.7 mm 19.8° 1003.2 hPa 5.7 m/s 0.0 mm 16.7° 1002.9 hPa 8.2 m/s
23:00 17.0° 1003.7 hPa 6.4 m/s 7.7 mm 15.8° 1002.2 hPa 7.6 m/s 10.2 mm 16.8° 1003.9 hPa 6.4 m/s 7.5 mm 17.8° 1004.1 hPa 7.4 m/s 0.0 mm 16.6° 1002.7 hPa 7.8 m/s
 05:44     21:13    Daglengte: 15:29 Zaterdag 07 Aug
02:00 16.3° 1003.4 hPa 4.5 m/s 8.5 mm 15.5° 1001.3 hPa 7.5 m/s 26.7 mm 16.3° 1003.8 hPa 3.2 m/s 5.9 mm 16.3° 1003.7 hPa 6.3 m/s 0.0 mm 14.7° 1002.7 hPa 4.1 m/s
05:00 16.0° 1003.0 hPa 3.5 m/s 5.8 mm 16.2° 1000.4 hPa 4.3 m/s 29.5 mm 15.3° 1003.8 hPa 2.3 m/s 1.2 mm 13.9° 1002.5 hPa 5.6 m/s
08:00 16.1° 1003.3 hPa 3.7 m/s 3.6 mm 16.2° 1000.3 hPa 3.8 m/s 30.9 mm 16.1° 1004.1 hPa 2.9 m/s 0.0 mm 15.5° 1003.2 hPa 5.5 m/s
11:00 18.0° 1003.6 hPa 4.3 m/s 5.0 mm 17.6° 1000.2 hPa 4.3 m/s 32.1 mm 18.4° 1004.2 hPa 3.8 m/s 0.9 mm 17.0° 1003.8 hPa 5.0 m/s
14:00 19.4° 1003.4 hPa 4.7 m/s 10.2 mm 19.4° 1000.6 hPa 6.4 m/s 38.4 mm 19.8° 1004.0 hPa 4.1 m/s 0.7 mm 18.7° 1003.7 hPa 5.9 m/s
17:00 19.7° 1003.0 hPa 3.0 m/s 7.8 mm 19.6° 1000.6 hPa 5.2 m/s 40.6 mm 19.4° 1004.0 hPa 2.4 m/s 0.8 mm 19.5° 1003.9 hPa 5.3 m/s
20:00 18.1° 1002.9 hPa 2.2 m/s 9.3 mm 18.1° 1001.0 hPa 3.2 m/s 41.7 mm 17.6° 1003.6 hPa 2.2 m/s 1.4 mm 18.0° 1004.0 hPa 2.1 m/s
23:00 16.0° 1002.0 hPa 2.6 m/s 12.2 mm 13.4° 1000.7 hPa 1.4 m/s 41.7 mm 16.3° 1002.7 hPa 2.5 m/s 0.6 mm 14.5° 1003.8 hPa 2.4 m/s
 05:46     21:11    Daglengte: 15:25 Zondag 08 Aug
02:00 15.8° 1001.3 hPa 3.2 m/s 11.6 mm 11.7° 1000.5 hPa 1.5 m/s 41.7 mm 16.3° 1001.4 hPa 4.2 m/s 6.1 mm 14.1° 1003.6 hPa 3.4 m/s
05:00 15.3° 1000.3 hPa 2.9 m/s 16.9 mm 11.3° 999.6 hPa 2.8 m/s 41.7 mm 16.3° 1000.5 hPa 2.9 m/s 4.4 mm 14.0° 1002.3 hPa 4.0 m/s
08:00 16.7° 1000.1 hPa 3.6 m/s 0.0 mm 16.9° 999.3 hPa 3.6 m/s 41.7 mm 16.6° 1000.3 hPa 3.6 m/s 0.0 mm 15.6° 1002.2 hPa 4.9 m/s
11:00 17.7° 1001.0 hPa 6.0 m/s 7.4 mm 17.6° 1000.8 hPa 5.8 m/s 0.9 mm 18.4° 1002.9 hPa 7.3 m/s 33.2 mm
14:00 18.8° 1002.2 hPa 5.4 m/s 7.3 mm 18.8° 1001.9 hPa 5.2 m/s 0.3 mm 18.2° 1004.0 hPa 6.8 m/s 35.1 mm
17:00 18.1° 1005.2 hPa 7.8 m/s 36.6 mm 18.1° 1005.2 hPa 7.8 m/s 36.6 mm
20:00 16.6° 1006.2 hPa 6.7 m/s 37.4 mm 16.6° 1006.2 hPa 6.7 m/s 37.4 mm
23:00 14.7° 1007.7 hPa 5.8 m/s 37.7 mm 14.7° 1007.7 hPa 5.8 m/s 37.7 mm
 05:47     21:09    Daglengte: 15:22 Maandag 09 Aug
02:00 15.6° 1008.2 hPa 6.4 m/s 37.9 mm 15.6° 1008.2 hPa 6.4 m/s 37.9 mm
05:00 14.7° 1008.5 hPa 5.8 m/s 38.1 mm 14.7° 1008.5 hPa 5.8 m/s 38.1 mm
08:00 15.6° 1009.7 hPa 5.7 m/s 38.6 mm 15.6° 1009.7 hPa 5.7 m/s 38.6 mm
11:00 18.3° 1011.2 hPa 8.5 m/s 39.6 mm 18.3° 1011.2 hPa 8.5 m/s 39.6 mm
14:00 19.5° 1012.1 hPa 9.2 m/s 40.2 mm 19.5° 1012.1 hPa 9.2 m/s 40.2 mm
17:00 17.9° 1012.9 hPa 7.6 m/s 42.0 mm 17.9° 1012.9 hPa 7.6 m/s 42.0 mm
20:00 16.3° 1013.9 hPa 6.9 m/s 42.7 mm 16.3° 1013.9 hPa 6.9 m/s 42.7 mm
23:00 14.1° 1015.2 hPa 4.7 m/s 42.7 mm 14.1° 1015.2 hPa 4.7 m/s 42.7 mm
 05:49     21:06    Daglengte: 15:17 Dinsdag 10 Aug
02:00 13.3° 1015.8 hPa 4.4 m/s 42.8 mm 13.3° 1015.8 hPa 4.4 m/s 42.8 mm
05:00 13.0° 1015.9 hPa 4.1 m/s 42.8 mm 13.0° 1015.9 hPa 4.1 m/s 42.8 mm
08:00 15.6° 1016.4 hPa 4.0 m/s 42.8 mm 15.6° 1016.4 hPa 4.0 m/s 42.8 mm
11:00 19.4° 1017.0 hPa 5.3 m/s 42.8 mm 19.4° 1017.0 hPa 5.3 m/s 42.8 mm
14:00 20.8° 1016.8 hPa 5.5 m/s 42.8 mm 20.8° 1016.8 hPa 5.5 m/s 42.8 mm
17:00 16.9° 1017.1 hPa 5.0 m/s 43.2 mm 16.9° 1017.1 hPa 5.0 m/s 43.2 mm
20:00 16.9° 1017.2 hPa 4.6 m/s 43.5 mm 16.9° 1017.2 hPa 4.6 m/s 43.5 mm
23:00 15.6° 1017.8 hPa 3.5 m/s 43.5 mm 15.6° 1017.8 hPa 3.5 m/s 43.5 mm
 05:51     21:04    Daglengte: 15:13 Woensdag 11 Aug
02:00 15.5° 1017.9 hPa 3.6 m/s 43.5 mm 15.5° 1017.9 hPa 3.6 m/s 43.5 mm
05:00 14.8° 1017.5 hPa 3.5 m/s 43.5 mm 14.8° 1017.5 hPa 3.5 m/s 43.5 mm
08:00 16.9° 1017.5 hPa 4.0 m/s 43.5 mm 16.9° 1017.5 hPa 4.0 m/s 43.5 mm
11:00 20.2° 1017.4 hPa 5.8 m/s 43.5 mm 20.2° 1017.4 hPa 5.8 m/s 43.5 mm
14:00 22.0° 1017.2 hPa 7.3 m/s 43.7 mm 22.0° 1017.2 hPa 7.3 m/s 43.7 mm
17:00 21.3° 1017.3 hPa 7.1 m/s 44.8 mm 21.3° 1017.3 hPa 7.1 m/s 44.8 mm
20:00 18.7° 1017.6 hPa 4.9 m/s 45.2 mm 18.7° 1017.6 hPa 4.9 m/s 45.2 mm
23:00 15.6° 1019.1 hPa 3.8 m/s 45.2 mm 15.6° 1019.1 hPa 3.8 m/s 45.2 mm
 05:53     21:02    Daglengte: 15:09 Donderdag 12 Aug
02:00 14.0° 1020.1 hPa 3.3 m/s 45.2 mm 14.0° 1020.1 hPa 3.3 m/s 45.2 mm
05:00 12.6° 1020.4 hPa 3.6 m/s 45.2 mm 12.6° 1020.4 hPa 3.6 m/s 45.2 mm
08:00 15.2° 1021.5 hPa 4.3 m/s 45.2 mm 15.2° 1021.5 hPa 4.3 m/s 45.2 mm
11:00 18.7° 1022.5 hPa 5.1 m/s 45.2 mm 18.7° 1022.5 hPa 5.1 m/s 45.2 mm
14:00 20.2° 1022.9 hPa 6.6 m/s 45.2 mm 20.2° 1022.9 hPa 6.6 m/s 45.2 mm
20:00 16.7° 1024.0 hPa 4.2 m/s 45.2 mm 16.7° 1024.0 hPa 4.2 m/s 45.2 mm
 05:55     21:00    Daglengte: 15:05 Vrijdag 13 Aug
02:00 12.1° 1025.2 hPa 3.1 m/s 45.2 mm 12.1° 1025.2 hPa 3.1 m/s 45.2 mm
08:00 14.3° 1025.2 hPa 3.1 m/s 45.2 mm 14.3° 1025.2 hPa 3.1 m/s 45.2 mm
14:00 22.3° 1023.8 hPa 3.3 m/s 45.2 mm 22.3° 1023.8 hPa 3.3 m/s 45.2 mm
20:00 21.0° 1021.5 hPa 1.7 m/s 45.2 mm 21.0° 1021.5 hPa 1.7 m/s 45.2 mm
 05:57     20:57    Daglengte: 15:00 Zaterdag 14 Aug
02:00 15.6° 1021.1 hPa 2.7 m/s 45.2 mm 15.6° 1021.1 hPa 2.7 m/s 45.2 mm
08:00 17.1° 1019.1 hPa 2.6 m/s 45.2 mm 17.1° 1019.1 hPa 2.6 m/s 45.2 mm
14:00 22.8° 1016.4 hPa 4.3 m/s 45.4 mm 22.8° 1016.4 hPa 4.3 m/s 45.4 mm
20:00 19.6° 1014.1 hPa 2.8 m/s 45.4 mm 19.6° 1014.1 hPa 2.8 m/s 45.4 mm
 05:59     20:55    Daglengte: 14:56 Zondag 15 Aug
02:00 16.4° 1011.8 hPa 5.2 m/s 45.4 mm 16.4° 1011.8 hPa 5.2 m/s 45.4 mm
08:00 15.1° 1009.9 hPa 2.8 m/s 0.5 mm
14:00 19.2° 1010.1 hPa 3.6 m/s 1.1 mm
20:00 16.8° 1010.1 hPa 2.8 m/s 1.2 mm
 06:00     20:53    Daglengte: 14:53 Maandag 16 Aug
02:00 13.8° 1010.7 hPa 1.5 m/s 0.5 mm
08:00 15.0° 1010.2 hPa 1.8 m/s 0.5 mm
14:00 20.0° 1010.8 hPa 3.3 m/s 1.2 mm
20:00 17.4° 1011.0 hPa 2.8 m/s 0.9 mm
 06:02     20:51    Daglengte: 14:49 Dinsdag 17 Aug
02:00 14.3° 1011.7 hPa 2.9 m/s 0.7 mm
08:00 15.3° 1012.0 hPa 3.0 m/s 0.4 mm
14:00 19.4° 1012.7 hPa 4.5 m/s 0.9 mm
20:00 17.0° 1012.4 hPa 3.5 m/s 0.9 mm
 06:04     20:48    Daglengte: 14:44 Woensdag 18 Aug
02:00 14.8° 1012.6 hPa 2.1 m/s 0.0 mm
08:00 15.7° 1012.1 hPa 2.3 m/s 0.6 mm
14:00 20.1° 1012.0 hPa 3.4 m/s 1.5 mm
20:00 18.0° 1011.7 hPa 2.6 m/s 0.9 mm
 06:06     20:46    Daglengte: 14:40 Donderdag 19 Aug
02:00 15.0° 1012.1 hPa 1.9 m/s 0.7 mm
08:00 15.9° 1012.2 hPa 1.8 m/s 0.6 mm
14:00 20.6° 1012.7 hPa 2.8 m/s 0.8 mm
20:00 17.7° 1012.4 hPa 2.0 m/s 0.8 mm
 06:08     20:43    Daglengte: 14:35 Vrijdag 20 Aug
02:00 14.6° 1012.6 hPa 1.5 m/s 0.3 mm
08:00 15.6° 1012.1 hPa 1.7 m/s 0.5 mm